Alvadore, OR

6:55 PM PST on February 24, 2017 (GMT -0800)
Mahlon Sweet

Weather History for KEUG - December, 2012

Change the Weather History Date:

Sunday, December 9, 2012

  Actual Average Record
Temperature  
Mean Temperature 45 °F 40 °F  
Max Temperature 48 °F 46 °F 67 °F (1895)
Min Temperature 41 °F 34 °F -5 °F (1972)
Degree Days  
Heating Degree Days 20 25  
Month to date heating degree days 167 219  
Since 1 July heating degree days 1094 1392  
Cooling Degree Days 0 0  
Month to date cooling degree days 0 0  
Year to date cooling degree days 230 239  
Moisture  
Dew Point 43 °F    
Average Humidity 88    
Maximum Humidity 100    
Minimum Humidity 76    
Precipitation  
Precipitation 0.02 in 0.26 in 2.71 in (1987)
Month to date precipitation 2.49 2.56  
Year to date precipitation 45.24 40.83  
Snow  
Snow 0.00 in - - ()
Month to date snowfall  
Since 1 July snowfall 0.0  
Snow Depth 0.00 in    
Sea Level Pressure  
Sea Level Pressure 30.40 in    
Wind  
Wind Speed 5 mph (South)    
Max Wind Speed 13 mph    
Max Gust Speed 17 mph    
Visibility 9 miles    
Events Rain    
T = Trace of Precipitation, MM = Missing Value Source: NWS Daily Summary

Daily Weather History Graph

Daily Weather History Graph

Search for Another Location

Airport or City:

Trip Planner

Search our weather history database for the weather conditions in past years. The results will help you decide how hot, cold, wet, or windy it might be!

Date:

Astronomy

Dec. 09, 2012 Rise Set
Actual Time 7:36 AM PST 4:34 PM PST
Civil Twilight 7:03 AM PST 5:07 PM PST
Nautical Twilight 6:27 AM PST 5:43 PM PST
Astronomical Twilight 5:52 AM PST 6:18 PM PST
Moon 3:09 AM PST (12/9) 1:50 PM PST (12/9)
Length of Visible Light 10h 03m
Length of Day
8h 57m
Waning Crescent, 17% of the Moon is Illuminated
Dec 9
Waning Crescent
Dec 13
New
Dec 19
First Quarter
Dec 28
Full
Jan 4
Last Quarter

Hourly Weather History & Observations

Time (PST) Temp. Windchill Dew Point Humidity Pressure Visibility Wind Dir Wind Speed Gust Speed Precip Events Conditions
12:54 AM 42.1 °F 39.2 °F 41.0 °F 96% 30.37 in 10.0 mi South 4.6 mph - 0.00 in Rain Light Rain
1:54 AM 42.1 °F - 41.0 °F 96% 30.38 in 10.0 mi Calm Calm - 0.01 in Rain Light Rain
2:54 AM 41.0 °F - 41.0 °F 100% 30.39 in 10.0 mi Calm Calm - 0.00 in   Overcast
3:54 AM 42.1 °F - 41.0 °F 96% 30.40 in 10.0 mi Calm Calm - N/A   Overcast
4:54 AM 41.0 °F - 41.0 °F 100% 30.40 in 10.0 mi Calm Calm - N/A   Overcast
5:54 AM 42.1 °F 40.2 °F 39.9 °F 92% 30.41 in 10.0 mi South 3.5 mph - 0.00 in   Overcast
6:54 AM 42.1 °F 37.7 °F 39.9 °F 92% 30.41 in 10.0 mi South 6.9 mph - 0.01 in   Overcast
7:54 AM 42.1 °F 40.2 °F 41.0 °F 96% 30.41 in 10.0 mi South 3.5 mph - N/A   Overcast
8:54 AM 43.0 °F 38.8 °F 39.9 °F 89% 30.41 in 10.0 mi South 6.9 mph - N/A   Overcast
9:54 AM 45.0 °F 39.3 °F 39.9 °F 82% 30.43 in 10.0 mi South 11.5 mph - N/A   Overcast
10:54 AM 46.0 °F 41.4 °F 39.9 °F 79% 30.42 in 10.0 mi SSE 9.2 mph - N/A   Overcast
11:54 AM 46.9 °F - 42.1 °F 83% 30.41 in 9.0 mi SSW 9.2 mph - N/A   Overcast
12:54 PM 48.0 °F - 42.1 °F 80% 30.39 in 10.0 mi SSW 9.2 mph - N/A   Overcast
1:28 PM 48.2 °F - 41.0 °F 76% 30.38 in 10.0 mi South 11.5 mph - N/A   Overcast
1:54 PM 48.0 °F - 42.1 °F 80% 30.40 in 9.0 mi South 8.1 mph - N/A   Overcast
2:54 PM 46.9 °F - 44.1 °F 90% 30.40 in 6.0 mi South 9.2 mph - N/A   Overcast
3:48 PM 46.4 °F 41.5 °F 44.6 °F 93% 30.38 in 5.0 mi South 10.4 mph - N/A   Overcast
3:54 PM 46.9 °F - 44.1 °F 90% 30.39 in 4.0 mi South 10.4 mph - 0.00 in Rain Light Rain
4:11 PM 46.4 °F 41.9 °F 44.6 °F 93% 30.38 in 9.0 mi South 9.2 mph - 0.00 in Rain Light Rain
4:54 PM 46.9 °F - 45.0 °F 93% 30.39 in 10.0 mi SSW 4.6 mph - 0.00 in   Overcast
5:54 PM 46.4 °F 44.3 °F 44.6 °F 93% 30.38 in 10.0 mi South 4.6 mph - N/A Rain Light Rain
6:54 PM 46.9 °F - 45.0 °F 93% 30.39 in 10.0 mi South 3.5 mph - 0.00 in   Overcast
7:54 PM 46.9 °F - 45.0 °F 93% 30.41 in 10.0 mi Calm Calm - N/A   Overcast
8:54 PM 46.9 °F - 45.0 °F 93% 30.41 in 10.0 mi SW 3.5 mph - N/A   Overcast
9:54 PM 46.9 °F - 46.0 °F 97% 30.40 in 10.0 mi South 4.6 mph - N/A   Overcast
10:51 PM 48.2 °F - 44.6 °F 87% 30.40 in 10.0 mi South 5.8 mph - N/A   Overcast
10:54 PM 48.0 °F - 45.0 °F 89% 30.40 in 10.0 mi South 5.8 mph - N/A   Overcast
11:54 PM 48.0 °F - 45.0 °F 89% 30.41 in 10.0 mi SE 6.9 mph - N/A   Overcast